Regional Weather Roundup
Issued by NWS Upton, NY

Current Version | Previous Version | Graphics & Text | Print | Product List | Glossary Off
Versions: 1 2 3 4 5 6 7 8 9 10 11 12 13 14 15 16 17 18 19 20 21 22 23 24 25 26 27 28 29 30 31 32 33 34 35 36 37 38 39 40 41 42 43 44 45 46 47 48 49 50

000
ASUS41 KOKX 292218
RWROKX

REGIONAL WEATHER ROUNDUP
NATIONAL WEATHER SERVICE NEW YORK NY
600 PM EDT MON JUN 29 2015

NOTE: "FAIR" INDICATES FEW OR NO CLOUDS BELOW 12,000 FEET WITH NO
SIGNIFICANT WEATHER AND/OR OBSTRUCTIONS TO VISIBILITY.

NYZ071-072-176-178-NJZ106-104-292300-
NEW YORK CITY METRO AREA


CITY           SKY/WX    TMP DP  RH WIND       PRES   REMARKS
CENTRAL PARK   SUNNY     76  54  46 VRB3      29.93S
LAGUARDIA APRT MOSUNNY   77  53  43 W10       29.89F
KENNEDY INTL   MOSUNNY   79  55  43 W10       29.91S
NEWARK/LIBERTY MOSUNNY   79  56  45 W10G17    29.90S
BRNX BOT. GARD   N/A     77  55  47 W6        29.93R
TETERBORO      MOSUNNY   77  55  46 W7        29.89S
$$

NYZ177-179-078>081-292300-
LONG ISLAND NEW YORK

CITY           SKY/WX    TMP DP  RH WIND       PRES   REMARKS
FARMINGDALE    PTSUNNY   77  56  48 W6        29.91R
ISLIP          PTSUNNY   73  60  63 SW12      29.89S
SHIRLEY        MOSUNNY   74  59  59 SW10      29.91S
WESTHAMPTON    PTSUNNY   72  60  66 SW10      29.92R
MONTAUK POINT    N/A     72  59  63 SW10G21   29.92R
$$

NYZ052-065-067-292300-
HUDSON VALLEY

CITY           SKY/WX    TMP DP  RH WIND       PRES   REMARKS
WHITE PLAINS   MOSUNNY   74  56  53 VRB6      29.90S
NEWBURGH       MOSUNNY   73  61  64 W14       29.91R
MONTGOMERY     PTSUNNY   75  59  57 VRB3      29.89S
POUGHKEEPSIE   CLOUDY    75  58  55 SW9       29.88S
ALBANY         PTSUNNY   73  58  59 W7        29.87S
$$

NJZ001-105-106-008-010-013-015-019>022-104-292300-
NEW JERSEY

CITY           SKY/WX    TMP DP  RH WIND       PRES   REMARKS
NEWARK/LIBERTY MOSUNNY   79  56  45 W10G17    29.90S
TETERBORO      MOSUNNY   77  55  46 W7        29.89S
CALDWELL       SUNNY     77  54  44 W9        29.91R
MORRISTOWN     MOSUNNY   79  59  50 W8        29.91S
SOMERVILLE     SUNNY     78  56  46 MISG      29.89S
SUSSEX         MOSUNNY   74  57  55 VRB3      29.90S
ANDOVER          N/A     73  58  59 VRB5      29.91S
TRENTON        SUNNY     78  56  46 W6        29.91F
MILLVILLE      MOSUNNY   79  58  48 W7        29.94R
ATLANTIC CITY  PTSUNNY   78  57  48 W12       29.94R
WRIGHTSTOWN    SUNNY     77  57  50 W8        29.90S
TOMS RIVER     PTSUNNY   79  55  44 W9        29.93S
BELMAR         SUNNY     77  55  47 W10       29.93R
$$

PAZ047>061-062-071-292300-
EASTERN PENNSYLVANIA

CITY           SKY/WX    TMP DP  RH WIND       PRES   REMARKS
PHILADELPHIA   MOSUNNY   81  53  37 W6        29.92F
ALLENTOWN      SUNNY     78  57  48 W12       29.91S
SCRANTON       MOSUNNY   77  55  46 W8        29.90S
$$

CTZ002-004>006-009-010-012-RIZ004-006-007-MAZ004-011-015-292300-
SOUTHERN NEW ENGLAND
 IN CT

CITY           SKY/WX    TMP DP  RH WIND       PRES   REMARKS
BRADLEY INTL   PTSUNNY   76  58  53 W9        29.86R
HARTFORD       CLOUDY    76  57  51 SW14G20   29.86S
DANBURY        PTSUNNY   72  55  55 W12       29.91S
WTRBRY/OXFORD  PTSUNNY   72  57  60 W7        29.92R
BRIDGEPORT     MOSUNNY   75  60  59 SW14      29.89R
MERIDEN        PTSUNNY   76  56  49 W8        29.88R
NEW HAVEN      SUNNY     73  60  63 SW10      29.88S
CHESTER        FAIR      73  57  56 SW7       29.90S
GROTON         MOSUNNY   74  57  55 SW12      29.88S
WILLIMANTIC    PTSUNNY   74  60  61 S10       29.88R

 IN RI

CITY           SKY/WX    TMP DP  RH WIND       PRES   REMARKS
PROVIDENCE     PTSUNNY   74  59  59 SW14      29.88R
BLOCK ISLAND   SUNNY     70  59  68 SW17      29.92R
WESTERLY       PTSUNNY   74  57  55 SW9       29.90R

 IN MA

CITY           SKY/WX    TMP DP  RH WIND       PRES   REMARKS
BOSTON         PTSUNNY   72  59  63 SW12      29.86R
WORCESTER      MOSUNNY   71  56  58 W10       29.89S
WESTFIELD      CLOUDY    73  58  59 W10       29.87R
PROVINCETOWN   CLOUDY    70  12  11 SW9       29.88R
NANTUCKET      MOSUNNY   68  60  75 SW15      29.91R
$$

ANZ330-335-338-340-345-350-353-355-292300-
COASTAL MARINE OBSERVATIONS


STATION/POSITION TIME  SKY/WX   TEMP    WIND        PRES    VSBY  WAVE
                                AIR SEA DIR/SP/G                  HT/PER
                 (UTC)          (F)     (DEG/KT/KT) (MB)    (MI)  (FT/S)
NY HARB ENTRANCE 2150            72 69  190/  4/  6 1012.8          3/ 9
4S FIRE IS       2103               66                N/A           4/ 8
20S FIRE ISLAND  2150            68 66  210/ 12/ 14 1012.8          4/ 8
GREAT SOUTH BAY  2100            70 72  230/ 16/ 17   N/A
23SW MTP         2150            67 66  230/ 14/ 17 1012.6          5/ 8
HUDSON CANYON    NOT AVBL
KINGS POINT      2100            73 69  290/  8/  9 1011.9
CENTRAL LI SOUND NOT AVBL
EASTERN LI SOUND 2115            68     270/  8/ 12   N/A
ROBBINS REEF     2100            74     280/ 11/ 14 1011.5
$$


>>>>>>>>>>>>>>>>>>>>>>>>>>>> KEY <<<<<<<<<<<<<<<<<<<<<<<<<<<
>                                                          <
>     SKY/WX - SKY CONDITION/PRESENT WEATHER               <
>     TMP    - TEMPERATURE IN FAHRENHEIT                   <
>     DP     - DEWPOINT IN FAHRENHEIT                      <
>     RH     - RELATIVE HUMIDITY IN PERCENT                <
>     WIND   - DIRECTION AND SPEED IN MPH                  <
>     PRES   - MEAN SEA LEVEL PRESSURE IN INCHES OF HG     <
>     WCI    - WIND CHILL INDEX                            <
>     VSB    - VISIBILITY IN MILES                         <
>     HX     - HEAT INDEX                                  <
>     TC     - TEMPERATURE IN CELSIUS                      <
>     VRB    - VARIABLE WIND DIRECTION                     <
>                                                          <
>>>>>>>>>>>>>>>>>>>>>>>>>>>> KEY <<<<<<<<<<<<<<<<<<<<<<<<<<<





USA.gov is the U.S. government's official web portal to all federal, state and local government web resources and services.